[[{"header":{"parameterUnit":"m.s-1","parameterCategory":1,"la1":30.2991,"la2":30.254,"lo1":-89.0895,"lo2":-89.0444,"dy":0.0017,"dx":0.0017,"nx":28,"ny":28,"refTime":"2024-06-11T21:00:00:Z","depth":0,"parameterNumber":2,"parameterNumberName":"U-component_of_WINDS"},"data":[0,0,0,0,0,0,0,0,0,0,0,0,0,0,0,0,0,0,0,0,0,0,0,0,0,0,0,0,0,0,0,0,0,0,0,0,0,0,0,0,0,0,0,0,0,0,0,0,0,0,0,0,0,0,0,0,0,0,-2.3679,-2.3679,0,-2.3709,-2.3709,-2.371,-2.3606,-2.3603,-2.3599,-2.3596,-2.3629,-2.3633,-2.3637,0,0,0,0,0,0,0,0,0,0,0,0,0,-2.3533,-2.3537,-2.3679,-2.3679,-2.368,-2.3709,-2.3709,-2.371,-2.3606,-2.3602,-2.3599,-2.3595,-2.3628,-2.3632,-2.3637,0,0,0,0,0,0,0,0,0,0,0,0,0,-2.3583,-2.3538,-2.3679,-2.3632,-2.3628,-2.3709,-2.3709,-2.371,-2.3607,-2.3602,-2.3598,-2.3593,-2.3627,-2.3632,-2.3638,-2.3767,0,0,-2.3655,-2.3657,0,0,0,0,0,0,0,0,-2.3581,-2.3589,-2.3638,-2.3635,-2.3631,-2.3649,-2.367,-2.3729,-2.3608,-2.3615,-2.3596,-2.3591,-2.364,-2.3644,-2.366,-2.3768,-2.377,-2.3656,-2.3659,-2.3661,-2.3663,0,0,0,0,0,0,0,-2.3577,-2.3587,-2.3691,-2.3639,-2.3635,-2.3609,-2.3611,-2.3681,-2.3653,-2.3614,-2.3606,-2.3611,-2.3637,-2.3655,-2.366,-2.377,-2.3655,-2.366,-2.3664,-2.3666,-2.3985,-2.399,0,0,0,0,0,0,-2.358,-2.3585,-2.369,-2.3692,-2.3594,-2.3616,-2.3618,-2.3648,-2.3652,-2.3648,-2.3615,-2.3606,-2.3647,-2.3653,-2.3661,-2.3812,-2.3661,-2.3667,-2.367,-2.398,-2.3986,-2.3991,0,0,0,0,0,0,-2.3577,-2.359,-2.3689,-2.3636,-2.3647,-2.3623,-2.3658,-2.3651,-2.3669,-2.3653,-2.3648,-2.3639,-2.3644,-2.3653,-2.3741,-2.3812,-2.3669,-2.3674,-2.3974,-2.3982,-2.3989,-2.4116,0,0,0,0,0,0,-2.3573,-2.359,-2.3639,-2.3638,-2.365,-2.3769,-2.3662,-2.3655,-2.3678,-2.3667,-2.3674,-2.367,-2.3641,-2.3733,-2.3746,-2.3817,-2.3679,-2.3967,-2.3977,-2.3986,-2.4106,-2.4127,-2.4146,0,0,0,0,0,-2.3569,-2.3674,-2.3642,-2.3655,-2.371,-2.3773,-2.378,-2.3743,-2.3685,-2.3734,-2.3723,-2.367,-2.3801,-2.3743,-2.3757,-2.3831,-2.3963,-2.3974,-2.3985,-2.4097,-2.4123,-2.4145,0,0,0,0,0,0,-2.3685,-2.3673,-2.3637,-2.3746,-2.3761,-2.3755,-2.3816,-2.3772,-2.3805,-2.3793,-2.3746,-2.3749,-2.3846,-2.3846,-2.3781,-2.3955,-2.3872,-2.3887,-2.3952,-2.3976,-2.3996,-2.3995,-2.3684,0,0,0,0,0,-2.3723,-2.3774,-2.3761,-2.3858,-2.3867,-2.3841,-2.3866,-2.3836,-2.3851,-2.3857,-2.3853,-2.387,-2.3914,-2.3945,-2.3985,-2.4104,-2.4104,-2.4162,-2.4182,-2.4198,-2.4212,-2.4275,-2.4301,-2.4029,-2.4029,-2.4028,0,0,-2.3803,-2.3802,-2.3838,-2.3881,-2.389,-2.3944,-2.3847,-2.3909,-2.3949,-2.3867,-2.395,-2.3947,-2.3962,-2.4067,-2.4112,-2.407,-2.4287,-2.4213,-2.4226,-2.4231,-2.4289,-2.4315,-2.4338,-2.4036,-2.4035,-2.4034,0,0,-2.3976,-2.3981,-2.4062,-2.4072,-2.4085,-2.4066,-2.4085,-2.4086,-2.4081,-2.4163,-2.4103,-2.4149,-2.4227,-2.4241,-2.4258,-2.4434,-2.4386,-2.4448,-2.4554,-2.4616,-2.4637,-2.4656,-2.4719,-2.4743,-2.4461,-2.4462,-2.4462,0,-2.4074,-2.4153,-2.4109,-2.4175,-2.4196,-2.4122,-2.4204,-2.4216,-2.4243,-2.4259,-2.4211,-2.4307,-2.4312,-2.4418,-2.4461,-2.4476,-2.4498,-2.4448,-2.4637,-2.4656,-2.4673,-2.4733,-2.4757,-2.4469,-2.4468,-2.4468,-2.4467,0,-2.4273,-2.4328,-2.4392,-2.4419,-2.4446,-2.452,-2.4488,-2.4521,-2.4488,-2.4474,-2.4559,-2.4561,-2.4601,-2.4623,-2.4592,-2.4725,-2.4699,-2.4645,-2.4561,-2.4707,-2.4763,-2.4785,-2.448,-2.4477,-2.4475,-2.4473,0,0,-2.4523,-2.4522,-2.4547,-2.4557,-2.4566,-2.4608,-2.4678,-2.4715,-2.4745,-2.4765,-2.4823,-2.489,-2.4839,-2.4859,-2.4828,-2.4882,-2.5022,-2.4821,-2.4821,-2.486,-2.5169,-2.5211,-2.5238,-2.499,-2.4994,-2.4997,-2.5168,0,-2.4694,-2.4813,-2.4775,-2.4896,-2.4947,-2.4876,-2.4937,-2.4949,-2.4938,-2.4979,-2.4966,-2.5015,-2.4944,-2.4955,-2.5005,-2.4995,-2.5084,-2.4981,-2.5044,-2.5047,-2.5045,-2.5267,-2.5312,-2.5474,-2.519,-2.5193,-2.5196,0,-2.491,-2.4938,-2.5064,-2.5062,-2.5082,-2.5138,-2.5168,-2.5209,-2.522,-2.5208,-2.5229,-2.5186,-2.5255,-2.5169,-2.5263,-2.5194,-2.5217,-2.5215,-2.5221,-2.5227,-2.5132,-2.5281,-2.5524,-2.5549,-2.523,-2.5227,-2.5225,0,-2.5082,-2.515,-2.5234,-2.5245,-2.5245,-2.5286,-2.5288,-2.5294,-2.5319,-2.5346,-2.5362,-2.5396,-2.5416,-2.5444,-2.5412,-2.5352,-2.5511,-2.5422,-2.5504,-2.5505,-2.5542,-2.5541,-2.5794,-2.5554,-2.5554,-2.5554,-2.5553,0,-2.5278,-2.5358,-2.5311,-2.5363,-2.545,-2.5405,-2.5493,-2.5487,-2.5493,-2.5543,-2.5483,-2.5531,-2.5485,-2.5529,-2.5504,-2.5586,-2.5595,-2.5587,-2.558,-2.5594,-2.5595,-2.561,-2.5598,-2.556,-2.5559,-2.5557,-2.5556,0,-2.5485,-2.5457,-2.5544,-2.5536,-2.5536,-2.5601,-2.5594,-2.5642,-2.5625,-2.5688,-2.5701,-2.5675,-2.5723,-2.5693,-2.5742,-2.5725,-2.5833,-2.5809,-2.5829,-2.5823,-2.5907,-2.59,-2.618,-2.6215,-2.5951,-2.5954,-2.5956,0,-2.5614,-2.5673,-2.5671,-2.57,-2.5705,-2.5752,-2.5777,-2.5734,-2.5762,-2.5778,-2.5824,-2.5867,-2.5899,-2.598,-2.5966,-2.6003,-2.598,-2.6076,-2.5986,-2.5998,-2.5983,-2.5981,-2.5987,-2.6095,-2.6098,-2.6101,-2.6103,0,-2.5844,-2.5827,-2.5864,-2.5896,-2.5926,-2.595,-2.5968,-2.5995,-2.5952,-2.5986,-2.6034,-2.6059,-2.6108,-2.6152,-2.6183,-2.6185,-2.6138,-2.6131,-2.6152,-2.6167,-2.6177,-2.6174,-2.588,-2.6125,-2.6123,-2.6121,-2.612,-2.6119,-2.6017,-2.6067,-2.6073,-2.6116,-2.6125,-2.6143,-2.6187,-2.6175,-2.6214,-2.625,-2.6222,-2.628,-2.6288,-2.6325,-2.6333,-2.6377,-2.6338,-2.6369,-2.6376,-2.6385,-2.6397,-2.6168,-2.6382,-2.6381,-2.6381,-2.638,-2.638,0,-2.6246,-2.6246,-2.6285,-2.6313,-2.6346,-2.6296,-2.6314,-2.6346,-2.6397,-2.6408,-2.644,-2.6495,-2.6537,-2.6525,-2.6562,-2.66,-2.6579,-2.6611,-2.6609,-2.661,-2.6429,-2.6408,-2.6627,-2.6627,-2.6627,-2.6627,-2.6627,-2.6627,-2.6369,-2.645,-2.6433,-2.6518,-2.6517,-2.6572,-2.6586,-2.6603,-2.6612,-2.6676,-2.6709,-2.67,-2.6703,-2.6739,-2.6775,-2.677,-2.6787,-2.6828,-2.6816,-2.6647,-2.6623,-2.66,-2.6579,-2.6832,-2.6832,-2.6993,-2.6995,-2.6996]},{"header":{"parameterUnit":"m.s-1","parameterCategory":1,"la1":30.2991,"la2":30.254,"lo1":-89.0895,"lo2":-89.0444,"dy":0.0017,"dx":0.0017,"nx":28,"ny":28,"refTime":"2024-06-11T21:00:00:Z","depth":0,"parameterNumber":3,"parameterNumberName":"V-component_of_WINDS"},"data":[0,0,0,0,0,0,0,0,0,0,0,0,0,0,0,0,0,0,0,0,0,0,0,0,0,0,0,0,0,0,0,0,0,0,0,0,0,0,0,0,0,0,0,0,0,0,0,0,0,0,0,0,0,0,0,0,0,0,-3.7629,-3.763,0,-3.7696,-3.7696,-3.7697,-3.7657,-3.7655,-3.7653,-3.7651,-3.7714,-3.7718,-3.7721,0,0,0,0,0,0,0,0,0,0,0,0,0,-3.7461,-3.7464,-3.7629,-3.763,-3.7631,-3.7696,-3.7696,-3.7697,-3.7657,-3.7655,-3.7652,-3.765,-3.7713,-3.7717,-3.7722,0,0,0,0,0,0,0,0,0,0,0,0,0,-3.7531,-3.7465,-3.7629,-3.7618,-3.7618,-3.7695,-3.7697,-3.7698,-3.7657,-3.7654,-3.7652,-3.7649,-3.7712,-3.7717,-3.7722,-3.7812,0,0,-3.7738,-3.774,0,0,0,0,0,0,0,0,-3.7527,-3.7538,-3.7619,-3.7619,-3.7619,-3.7665,-3.7661,-3.7736,-3.7658,-3.7642,-3.7651,-3.7647,-3.77,-3.7706,-3.7725,-3.7815,-3.7818,-3.7739,-3.7742,-3.7744,-3.7746,0,0,0,0,0,0,0,-3.7523,-3.7534,-3.7655,-3.762,-3.762,-3.7609,-3.7615,-3.7675,-3.7686,-3.7643,-3.7641,-3.7649,-3.7699,-3.772,-3.7726,-3.7819,-3.7739,-3.7743,-3.7746,-3.7748,-3.7985,-3.7988,0,0,0,0,0,0,-3.7519,-3.7531,-3.7653,-3.7657,-3.7565,-3.7614,-3.7622,-3.7653,-3.7686,-3.7688,-3.7652,-3.7647,-3.7712,-3.772,-3.7728,-3.7835,-3.7744,-3.7749,-3.7752,-3.7982,-3.7986,-3.7989,0,0,0,0,0,0,-3.7516,-3.7531,-3.765,-3.7593,-3.7608,-3.762,-3.7656,-3.7656,-3.7676,-3.7692,-3.7693,-3.7671,-3.771,-3.7721,-3.7792,-3.7836,-3.7751,-3.7756,-3.7978,-3.7983,-3.7988,-3.8049,0,0,0,0,0,0,-3.7511,-3.753,-3.7565,-3.7594,-3.7611,-3.7715,-3.7658,-3.7659,-3.7686,-3.7681,-3.771,-3.7712,-3.7709,-3.7784,-3.7797,-3.7842,-3.776,-3.7974,-3.798,-3.7986,-3.8043,-3.8056,-3.8066,0,0,0,0,0,-3.7505,-3.7579,-3.7567,-3.7582,-3.7656,-3.7717,-3.7726,-3.7722,-3.769,-3.7725,-3.7735,-3.7711,-3.783,-3.7792,-3.7806,-3.7853,-3.7971,-3.7979,-3.7986,-3.8038,-3.8053,-3.8066,0,0,0,0,0,0,-3.7553,-3.7583,-3.757,-3.7655,-3.7684,-3.771,-3.7754,-3.7738,-3.7776,-3.7769,-3.7761,-3.7768,-3.7842,-3.7855,-3.7812,-3.7941,-3.7895,-3.7905,-3.793,-3.7945,-3.7956,-3.7951,-3.7764,0,0,0,0,0,-3.7574,-3.7623,-3.7645,-3.7718,-3.7734,-3.7742,-3.7768,-3.7763,-3.7792,-3.7803,-3.7818,-3.7846,-3.7889,-3.7918,-3.7958,-3.8045,-3.805,-3.8085,-3.8096,-3.8105,-3.8114,-3.816,-3.8175,-3.8013,-3.8012,-3.8012,0,0,-3.7616,-3.7639,-3.767,-3.7729,-3.775,-3.78,-3.7752,-3.7806,-3.7842,-3.7811,-3.7879,-3.7891,-3.7921,-3.8001,-3.8036,-3.8013,-3.816,-3.8114,-3.8122,-3.8125,-3.8168,-3.8184,-3.8197,-3.8017,-3.8016,-3.8016,0,0,-3.7719,-3.7742,-3.7805,-3.7828,-3.7862,-3.7867,-3.7882,-3.7911,-3.7918,-3.7987,-3.7964,-3.8006,-3.8081,-3.8103,-3.8124,-3.8236,-3.8215,-3.8249,-3.8308,-3.8353,-3.8366,-3.8377,-3.8416,-3.843,-3.8258,-3.8258,-3.8258,0,-3.7767,-3.7842,-3.7839,-3.7895,-3.7921,-3.7897,-3.796,-3.7982,-3.8027,-3.8044,-3.8019,-3.8112,-3.8131,-3.8214,-3.8242,-3.826,-3.8276,-3.8245,-3.8365,-3.8376,-3.8386,-3.8423,-3.8438,-3.8262,-3.8261,-3.8261,-3.8261,0,-3.7899,-3.7952,-3.7998,-3.8044,-3.8076,-3.8135,-3.8139,-3.8171,-3.8162,-3.817,-3.8239,-3.8261,-3.8305,-3.8325,-3.8317,-3.8407,-3.8392,-3.8366,-3.8319,-3.8406,-3.844,-3.8454,-3.8267,-3.8266,-3.8265,-3.8264,0,0,-3.8033,-3.8077,-3.8094,-3.8114,-3.815,-3.819,-3.8247,-3.8293,-3.8319,-3.8351,-3.8398,-3.8463,-3.8439,-3.8463,-3.8457,-3.8496,-3.8582,-3.8465,-3.8466,-3.8485,-3.8681,-3.87,-3.8717,-3.8569,-3.8572,-3.8574,-3.8679,0,-3.8137,-3.824,-3.8238,-3.8333,-3.838,-3.8358,-3.8408,-3.8434,-3.8442,-3.8483,-3.8491,-3.8536,-3.8502,-3.8516,-3.8554,-3.8564,-3.8621,-3.8556,-3.8611,-3.8613,-3.8603,-3.8735,-3.8755,-3.8852,-3.8692,-3.8694,-3.8696,0,-3.8272,-3.831,-3.841,-3.8439,-3.8459,-3.8504,-3.8545,-3.8584,-3.8613,-3.8616,-3.8644,-3.8632,-3.8688,-3.8641,-3.8718,-3.8674,-3.8697,-3.8705,-3.8708,-3.8712,-3.8659,-3.8741,-3.8884,-3.8898,-3.8717,-3.8716,-3.8714,0,-3.8358,-3.8434,-3.8504,-3.8522,-3.8558,-3.859,-3.8606,-3.8632,-3.8659,-3.8695,-3.8712,-3.8753,-3.8775,-3.8806,-3.8805,-3.8771,-3.8883,-3.8836,-3.8885,-3.8885,-3.8909,-3.8907,-3.9056,-3.8926,-3.8925,-3.8925,-3.8925,0,-3.8474,-3.8535,-3.8543,-3.8585,-3.8653,-3.865,-3.8717,-3.8729,-3.8753,-3.8797,-3.8779,-3.882,-3.8817,-3.8857,-3.8857,-3.892,-3.893,-3.8933,-3.8932,-3.8934,-3.8934,-3.8948,-3.894,-3.8929,-3.8928,-3.8927,-3.8927,0,-3.8581,-3.8589,-3.8663,-3.8691,-3.87,-3.8748,-3.8771,-3.8811,-3.8818,-3.8873,-3.8885,-3.8896,-3.8943,-3.8945,-3.8999,-3.8998,-3.9075,-3.9067,-3.9066,-3.9064,-3.9113,-3.9108,-3.9275,-3.9296,-3.9153,-3.9154,-3.9155,0,-3.8654,-3.8701,-3.8735,-3.8763,-3.8782,-3.8828,-3.8856,-3.8855,-3.8884,-3.8921,-3.8956,-3.9002,-3.9038,-3.9114,-3.9125,-3.9165,-3.9157,-3.9213,-3.9163,-3.9164,-3.9157,-3.9153,-3.9157,-3.9222,-3.9224,-3.9225,-3.9226,0,-3.8782,-3.8783,-3.8825,-3.8869,-3.8903,-3.8937,-3.8968,-3.8992,-3.8995,-3.9028,-3.9077,-3.9105,-3.9161,-3.9206,-3.9246,-3.926,-3.9243,-3.9242,-3.9256,-3.9257,-3.9254,-3.9256,-3.9091,-3.9238,-3.9237,-3.9236,-3.9235,-3.9235,-3.8873,-3.8913,-3.8944,-3.8991,-3.9015,-3.9045,-3.9083,-3.9096,-3.9137,-3.9183,-3.918,-3.9233,-3.926,-3.9312,-3.933,-3.9371,-3.9351,-3.9371,-3.9376,-3.938,-3.9385,-3.9249,-3.9378,-3.9378,-3.9377,-3.9377,-3.9377,0,-3.8999,-3.9018,-3.9061,-3.9106,-3.9143,-3.9127,-3.916,-3.9192,-3.924,-3.9267,-3.9304,-3.9359,-3.9403,-3.9418,-3.946,-3.949,-3.9483,-3.9501,-3.9497,-3.9501,-3.9401,-3.9384,-3.9505,-3.9505,-3.9505,-3.9505,-3.9505,-3.9505,-3.9069,-3.9136,-3.9141,-3.922,-3.9238,-3.9292,-3.9312,-3.9339,-3.9361,-3.9424,-3.9461,-3.9472,-3.9494,-3.9537,-3.9576,-3.9579,-3.9595,-3.9616,-3.9615,-3.9521,-3.9508,-3.9496,-3.948,-3.9619,-3.9619,-3.9712,-3.9713,-3.9714]}]]